This is the latest recevied weather packets stored in our database for station/object EA1GHG-11. If no packets are shown the sender has not sent any weather packets the latest 10 day(s).
| Time | Temp. | Humidity | Pressure | Rain* | Wind** | Luminosity | Snow |
|---|---|---|---|---|---|---|---|
| 1778177525 | 16.67° C | 100% | 1012.8 hPa | - | - | - | - |
| 1778176025 | 16.11° C | 100% | 1012.6 hPa | - | - | - | - |
| 1778174525 | 16.11° C | 100% | 1012.5 hPa | - | - | - | - |
| 1778173025 | 14.44° C | 100% | 1012.5 hPa | - | - | - | - |
| 1778171564 | 14.44° C | 100% | 1012.8 hPa | - | - | - | - |
| 1778171525 | 14.44° C | 100% | 1012.8 hPa | - | - | - | - |
| 1778170025 | 13.33° C | 100% | 1012.9 hPa | - | - | - | - |
| 1778168525 | 15.56° C | 100% | 1013 hPa | - | - | - | - |
| 1778167024 | 16.11° C | 100% | 1013.1 hPa | - | - | - | - |
| 1778165524 | 13.89° C | 100% | 1012.8 hPa | - | - | - | - |
| 1778164024 | 12.78° C | 100% | 1012.8 hPa | - | - | - | - |
| 1778162524 | 12.78° C | 100% | 1013 hPa | - | - | - | - |
| 1778161024 | 13.33° C | 100% | 1013.3 hPa | - | - | - | - |
| 1778159524 | 13.89° C | 100% | 1013.1 hPa | - | - | - | - |
| 1778158024 | 17.78° C | 100% | 1012.9 hPa | - | - | - | - |
| 1778156524 | 20° C | 100% | 1012.6 hPa | - | - | - | - |
| 1778155924 | 20° C | 100% | 1012.7 hPa | - | - | - | - |
| 1778154423 | 18.89° C | 94% | 1012.9 hPa | - | - | - | - |
| 1778152923 | 20.56° C | 92% | 1012.9 hPa | - | - | - | - |
| 1778151423 | 18.89° C | 100% | 1013.2 hPa | - | - | - | - |
| 1778149923 | 19.44° C | 98% | 1013.3 hPa | - | - | - | - |
| 1778148457 | 18.33° C | 100% | 1013.5 hPa | - | - | - | - |
| 1778148423 | 18.33° C | 100% | 1013.5 hPa | - | - | - | - |
| 1778146923 | 16.67° C | 100% | 1013.6 hPa | - | - | - | - |
| 1778145423 | 15.56° C | 100% | 1013.9 hPa | - | - | - | - |
* Rain since midnight (hover to see other rain measurements)
** Current wind speed in m/s (hover to see current wind gust speed)